STARLINK-36370

Last updated on Fri Mar 27 2026 00:02:06 GMT+0000 (Coordinated Universal Time)

1 67937U 26037F 26085.38761499 .00058659 00000+0 99725-3 0 9995 2 67937 43.0018 98.2452 0002120 265.8555 94.2063 15.50605787 5879
UTC large
Height (km)
Speed (km/s)
/
Latitude / Longitude
Inclination (degrees)
Orbital Period (minutes)
Azimuth
Elevation
Range (km)
Doppler Factor

Next 0 passes for location: London (51.5072 / 0.1276)

Sorry there are no passes over London.